Content
SEND FEEDBACK

Daily
Averages
Monthly
Summary
United States of America

HINGHAM, MASSACHUSETTS


Home > North America > United States > Massachusetts
Elevation: 3 feet     Latitude: 42 14N     Longitude: 070 55W

WEATHER
 
SELECT A DAY
Number of Records: 136,888;   Date Range: 10/15/98 - 12/17/14
 
SHARE

PRINT THIS DATA

[ ← Previous Day ]
WEATHER ALMANAC - MARCH 6, 2013
[ Next Day → ]
[ °C ]   °F
Weather ElementAverageHighLow
Temperature35 °F37 °F (8:54 am)33.1 °F (6:54 pm)
Dewpoint31.2 °F34 °F (2:54 am)27 °F (10:54 am)
Humidity86.2 %93 % (2:54 am)67 % (10:54 am)
Barometer30.06 in30.09 in (9:54 am)30.04 in (10:54 pm)
Wind Speed21.8 mph27.6 mph (8:54 am)
Wind Gust52.9 mph (2:54 pm)
Weather ElementAverage
Wind DirectionENE (64.8 °)

Weather ElementTotal
Precipitation0.19 in
Heating Degree Days30 (Base 65)
Averaged from 23 records on March 6, 2013
WEATHER CONDITIONS BREAKOUT
WIND DIRECTION BREAKOUT
WEATHER BY HOUR - MARCH 6, 2013
[ °C ]   °F
Local TimeTemperatureDewpointHumidityBarometerVisibilityWind DirectionWind SpeedGust SpeedPrecipitationEventsConditions
1:54 AM35.1 °F33.1 °F92 %30.05 inNE (40°)10.4 mph
2:54 AM36.0 °F34.0 °F93 %30.05 inNE (50°)12.7 mph21.9 mph
3:54 AM36.0 °F34.0 °F93 %30.06 inNE (50°)13.8 mph23.0 mph0.01 in
4:54 AM35.1 °F33.1 °F92 %30.05 inEast (80°)19.6 mph32.2 mph0.04 in
5:54 AM36.0 °F33.1 °F89 %30.05 inEast (80°)19.6 mph29.9 mph
6:54 AM36.0 °F33.1 °F89 %30.07 inEast (80°)20.7 mph34.5 mph
7:54 AM36.0 °F34.0 °F93 %30.08 inEast (80°)24.2 mph38.0 mph0.02 in
8:54 AM37.0 °F30.9 °F79 %30.08 inENE (70°)27.6 mph46.0 mph
9:54 AM35.1 °F30.0 °F82 %30.09 inEast (80°)27.6 mph47.2 mph
10:54 AM37.0 °F27.0 °F67 %30.07 inENE (70°)27.6 mph38.0 mph
11:54 AM37.0 °F30.0 °F76 %30.07 inENE (70°)23.0 mph35.7 mph
12:54 PM35.1 °F30.9 °F85 %30.07 inEast (80°)25.3 mph46.0 mph
1:54 PM35.1 °F30.9 °F85 %30.05 inENE (70°)27.6 mph47.2 mph0.03 in
2:54 PM35.1 °F32.0 °F89 %30.05 inENE (60°)27.6 mph52.9 mph0.02 in
3:54 PM34.0 °F30.9 °F89 %30.05 inENE (70°)26.5 mph38.0 mph0.01 in
4:54 PM34.0 °F30.0 °F85 %30.06 inENE (70°)21.9 mph42.6 mph
5:54 PM34.0 °F30.9 °F89 %30.06 inENE (60°)21.9 mph41.4 mph0.01 in
6:54 PM33.1 °F30.9 °F92 %30.07 inENE (60°)20.7 mph47.2 mph0.03 in
7:54 PM34.0 °F30.9 °F89 %30.06 inENE (60°)18.4 mph38.0 mph
8:54 PM33.1 °F30.0 °F89 %30.05 inENE (60°)23.0 mph42.6 mph0.01 in
9:54 PM34.0 °F30.0 °F85 %30.05 inNE (50°)23.0 mph43.7 mph
10:54 PM34.0 °F28.9 °F82 %30.04 inNE (50°)20.7 mph44.9 mph0.01 in
11:54 PM34.0 °F28.0 °F79 %30.04 inNE (50°)18.4 mph42.6 mph
Hourly data recorded from KMQE, located miles away from Hingham, Massachusetts







STORIES FROM OUR PARTNERS